| time (UTC) | temp F | wind direction | speed MPH | gust MPH | rain 1hr in | rain 24hr in | rain mn in | humidity % | barometer mb |
| 20260906232308 | 76 | 165 | 2.0 | 6.0 | 0.11 | 0.19 | 0.19 | 93 | 994.1 |
| 20260906231741 | 76 | 203 | 2.0 | 4.0 | 0.09 | 0.17 | 0.17 | 92 | 993.9 |
| 20260906230307 | 76 | 187 | 2.0 | 4.0 | 0.07 | 0.14 | 0.14 | 91 | 993.6 |
| 20260906225307 | 76 | 193 | 2.0 | 5.0 | 0.04 | 0.12 | 0.12 | 91 | 993.2 |
| 20260906224308 | 77 | 0 | 2.0 | 6.0 | 0.03 | 0.10 | 0.10 | 90 | 993.0 |
| 20260906223753 | 77 | 205 | 3.0 | 7.0 | 0.02 | 0.09 | 0.09 | 89 | 992.8 |
| 20260906222309 | 77 | 205 | 3.0 | 6.0 | 0.00 | 0.08 | 0.08 | 89 | 993.3 |
| 20260906221753 | 78 | 224 | 4.0 | 8.0 | 0.00 | 0.07 | 0.07 | 89 | 993.8 |
| 20260906220307 | 78 | 225 | 3.0 | 9.0 | 0.00 | 0.07 | 0.07 | 90 | 993.8 |
| 20260906215743 | 78 | 206 | 3.0 | 7.0 | 0.00 | 0.07 | 0.07 | 89 | 994.2 |
| 20260906214812 | 78 | 215 | 3.0 | 6.0 | 0.00 | 0.07 | 0.07 | 89 | 994.1 |
| 20260906213753 | 79 | 196 | 3.0 | 8.0 | 0.00 | 0.07 | 0.07 | 88 | 994.0 |
| 20260906212319 | 79 | 203 | 4.0 | 9.0 | 0.00 | 0.07 | 0.07 | 88 | 994.3 |
| 20260906211308 | 79 | 276 | 3.0 | 9.0 | 0.00 | 0.07 | 0.07 | 88 | 994.3 |
| 20260906210306 | 79 | 199 | 2.0 | 6.0 | 0.00 | 0.07 | 0.07 | 89 | 993.2 |
| 20260906205306 | 79 | 197 | 3.0 | 6.0 | 0.00 | 0.07 | 0.07 | 89 | 992.6 |
| 20260906204304 | 79 | 130 | 3.0 | 6.0 | 0.00 | 0.07 | 0.07 | 89 | 992.6 |
| 20260906203304 | 80 | 219 | 4.0 | 7.0 | 0.00 | 0.07 | 0.07 | 88 | 992.4 |
| 20260906202306 | 80 | 193 | 3.0 | 6.0 | 0.00 | 0.07 | 0.07 | 86 | 991.9 |
| 20260906201303 | 81 | 190 | 3.0 | 7.0 | 0.00 | 0.07 | 0.07 | 83 | 994.0 |
| 20260906200303 | 82 | 102 | 4.0 | 7.0 | 0.04 | 0.07 | 0.07 | 79 | 995.3 |
| 20260906195306 | 82 | 188 | 2.0 | 4.0 | 0.04 | 0.07 | 0.07 | 79 | 995.2 |
| 20260906194302 | 82 | 199 | 1.0 | 3.0 | 0.04 | 0.07 | 0.07 | 81 | 995.4 |
| 20260906193258 | 81 | 345 | 3.0 | 7.0 | 0.04 | 0.07 | 0.07 | 79 | 994.6 |
| 20260906192258 | 83 | 98 | 3.0 | 7.0 | 0.04 | 0.07 | 0.07 | 79 | 993.2 |
| 20260906191259 | 86 | 62 | 5.0 | 10.0 | 0.04 | 0.07 | 0.07 | 75 | 992.8 |
| 20260906190259 | 87 | 27 | 4.0 | 8.0 | 0.01 | 0.04 | 0.04 | 70 | 1005.8 |
| 20260906185738 | 87 | 29 | 5.0 | 10.0 | 0.03 | 0.04 | 0.04 | 71 | 998.5 |
| 20260906184259 | 87 | 38 | 6.0 | 12.0 | 0.04 | 0.04 | 0.04 | 68 | 1001.4 |
| 20260906183736 | 92 | 41 | 5.0 | 13.0 | 0.04 | 0.04 | 0.04 | 72 | 1004.9 |
| 20260906182256 | 92 | 12 | 2.0 | 4.0 | 0.04 | 0.04 | 0.04 | 65 | 1008.3 |
| 20260906181253 | 91 | 234 | 2.0 | 4.0 | 0.04 | 0.04 | 0.04 | 73 | 1003.0 |
| 20260906180254 | 91 | 313 | 2.0 | 7.0 | 0.02 | 0.02 | 0.02 | 71 | 994.9 |
| 20260906175253 | 96 | 195 | 3.0 | 8.0 | 0.00 | 0.00 | 0.00 | 64 | 1000.7 |
| 20260906174254 | 96 | 0 | 2.0 | 6.0 | 0.00 | 0.00 | 0.00 | 60 | 1010.6 |
| 20260906173254 | 95 | 294 | 2.0 | 6.0 | 0.00 | 0.00 | 0.00 | 58 | 1011.1 |
| 20260906172254 | 95 | 175 | 2.0 | 6.0 | 0.00 | 0.00 | 0.00 | 60 | 1011.5 |
| 20260906171307 | 93 | 247 | 2.0 | 5.0 | 0.00 | 0.00 | 0.00 | 65 | 1009.0 |
| 20260906165253 | 93 | 180 | 2.0 | 6.0 | 0.00 | 0.00 | 0.00 | 63 | 1008.6 |
| 20260906164253 | 92 | 213 | 4.0 | 8.0 | 0.00 | 0.00 | 0.00 | 66 | 1008.3 |
| 20260906163734 | 93 | 211 | 2.0 | 4.0 | 0.00 | 0.00 | 0.00 | 63 | 1009.8 |
| 20260906162253 | 93 | 35 | 2.0 | 7.0 | 0.00 | 0.00 | 0.00 | 65 | 1009.4 |
| 20260906161253 | 93 | 249 | 2.0 | 6.0 | 0.00 | 0.00 | 0.00 | 66 | 1010.6 |
| 20260906154247 | 91 | 185 | 2.0 | 6.0 | 0.00 | 0.00 | 0.00 | 68 | 1009.4 |
| 20260906153243 | 92 | 160 | 2.0 | 4.0 | 0.00 | 0.00 | 0.00 | 68 | 1009.2 |
| 20260906152731 | 92 | 331 | 2.0 | 4.0 | 0.00 | 0.00 | 0.00 | 67 | 1009.5 |
| 20260906151245 | 91 | 294 | 1.0 | 4.0 | 0.00 | 0.00 | 0.00 | 70 | 1009.6 |
| 20260906150256 | 90 | 317 | 1.0 | 3.0 | 0.00 | 0.00 | 0.00 | 71 | 1008.8 |
| 20260906145244 | 89 | 17 | 2.0 | 6.0 | 0.00 | 0.00 | 0.00 | 73 | 1008.1 |
| 20260906144244 | 88 | 158 | 2.0 | 4.0 | 0.00 | 0.00 | 0.00 | 76 | 1008.2 |
| 20260906143243 | 87 | 126 | 2.0 | 4.0 | 0.00 | 0.00 | 0.00 | 77 | 1006.5 |
| 20260906142242 | 87 | 192 | 2.0 | 5.0 | 0.00 | 0.00 | 0.00 | 78 | 1007.4 |
| 20260906141238 | 86 | 287 | 2.0 | 7.0 | 0.00 | 0.00 | 0.00 | 79 | 1002.1 |
| 20260906140251 | 87 | 328 | 2.0 | 6.0 | 0.00 | 0.00 | 0.00 | 78 | 1005.5 |
| 20260906135236 | 87 | 221 | 2.0 | 6.0 | 0.00 | 0.00 | 0.00 | 78 | 1007.4 |
| 20260906133236 | 85 | 254 | 2.0 | 7.0 | 0.00 | 0.00 | 0.00 | 81 | 1005.2 |
| 20260906132236 | 84 | 200 | 2.0 | 6.0 | 0.00 | 0.00 | 0.00 | 83 | 1005.0 |
| 20260906131235 | 83 | 218 | 2.0 | 7.0 | 0.00 | 0.00 | 0.00 | 85 | 1003.8 |
| 20260906130235 | 82 | 207 | 2.0 | 6.0 | 0.00 | 0.00 | 0.00 | 87 | 1003.1 |
| 20260906125713 | 81 | 208 | 2.0 | 4.0 | 0.00 | 0.00 | 0.00 | 88 | 1001.3 |
| 20260906124233 | 81 | 209 | 1.0 | 3.0 | 0.00 | 0.00 | 0.00 | 89 | 999.2 |
| 20260906123717 | 80 | 201 | 1.0 | 3.0 | 0.00 | 0.00 | 0.00 | 90 | 999.7 |
| 20260906122233 | 79 | 244 | 2.0 | 4.0 | 0.00 | 0.00 | 0.00 | 91 | 998.6 |
| 20260906121717 | 79 | 220 | 2.0 | 3.0 | 0.00 | 0.00 | 0.00 | 91 | 997.3 |
| 20260906120716 | 79 | 261 | 1.0 | 2.0 | 0.00 | 0.00 | 0.00 | 92 | 997.1 |
| 20260906115233 | 79 | 43 | 0.0 | 2.0 | 0.00 | 0.00 | 0.00 | 91 | 996.7 |
| 20260906114233 | 79 | 0 | 0.0 | 1.0 | 0.00 | 0.00 | 0.00 | 91 | 996.5 |
| 20260906113233 | 79 | 0 | 1.0 | 2.0 | 0.00 | 0.00 | 0.00 | 91 | 996.4 |
| 20260906112221 | 79 | 192 | 1.0 | 4.0 | 0.00 | 0.00 | 0.00 | 91 | 996.5 |
| 20260906111205 | 79 | 166 | 1.0 | 4.0 | 0.00 | 0.00 | 0.00 | 91 | 996.2 |
| 20260906110205 | 79 | 189 | 2.0 | 4.0 | 0.00 | 0.00 | 0.00 | 91 | 996.0 |
| 20260906105206 | 79 | 202 | 1.0 | 4.0 | 0.00 | 0.00 | 0.00 | 90 | 995.8 |
| 20260906104206 | 79 | 221 | 1.0 | 4.0 | 0.00 | 0.00 | 0.00 | 90 | 995.7 |
| 20260906103206 | 79 | 226 | 2.0 | 6.0 | 0.00 | 0.00 | 0.00 | 90 | 995.8 |
| 20260906102204 | 79 | 203 | 1.0 | 6.0 | 0.00 | 0.00 | 0.00 | 90 | 995.8 |
| 20260906101201 | 79 | 211 | 2.0 | 6.0 | 0.00 | 0.00 | 0.00 | 90 | 995.9 |
| 20260906100636 | 80 | 189 | 2.0 | 5.0 | 0.00 | 0.00 | 0.00 | 90 | 995.7 |
| 20260906095224 | 80 | 0 | 1.0 | 4.0 | 0.00 | 0.00 | 0.00 | 90 | 995.7 |
| 20260906094154 | 80 | 0 | 1.0 | 3.0 | 0.00 | 0.00 | 0.00 | 90 | 995.6 |
| 20260906093155 | 80 | 216 | 2.0 | 5.0 | 0.00 | 0.00 | 0.00 | 90 | 995.7 |
| 20260906092207 | 80 | 203 | 2.0 | 6.0 | 0.00 | 0.00 | 0.00 | 90 | 995.7 |
| 20260906091154 | 80 | 209 | 0.0 | 4.0 | 0.00 | 0.00 | 0.00 | 89 | 995.5 |
| 20260906090155 | 80 | 0 | 1.0 | 5.0 | 0.00 | 0.00 | 0.00 | 89 | 996.0 |
| 20260906085152 | 80 | 202 | 1.0 | 4.0 | 0.00 | 0.00 | 0.00 | 89 | 996.4 |
| 20260906084152 | 80 | 21 | 1.0 | 3.0 | 0.00 | 0.00 | 0.00 | 89 | 996.5 |
| 20260906083153 | 80 | 4 | 2.0 | 6.0 | 0.00 | 0.00 | 0.00 | 89 | 996.7 |
| 20260906082150 | 80 | 222 | 1.0 | 5.0 | 0.00 | 0.00 | 0.00 | 89 | 996.6 |
| 20260906081149 | 80 | 212 | 1.0 | 4.0 | 0.00 | 0.00 | 0.00 | 89 | 996.6 |
| 20260906080150 | 80 | 152 | 2.0 | 5.0 | 0.00 | 0.00 | 0.00 | 89 | 996.9 |
| 20260906075150 | 80 | 206 | 2.0 | 4.0 | 0.00 | 0.00 | 0.00 | 89 | 996.9 |
| 20260906074147 | 80 | 237 | 2.0 | 5.0 | 0.00 | 0.00 | 0.00 | 89 | 996.6 |
| 20260906073145 | 81 | 224 | 1.0 | 3.0 | 0.00 | 0.00 | 0.00 | 89 | 996.2 |
| 20260906072145 | 81 | 189 | 2.0 | 5.0 | 0.00 | 0.00 | 0.00 | 89 | 996.5 |
| 20260906071145 | 81 | 207 | 2.0 | 6.0 | 0.00 | 0.00 | 0.00 | 89 | 996.6 |
| 20260906070145 | 81 | 336 | 1.0 | 4.0 | 0.00 | 0.00 | 0.00 | 89 | 996.7 |
| 20260906065146 | 81 | 300 | 1.0 | 4.0 | 0.00 | 0.00 | 0.00 | 89 | 996.7 |
| 20260906064145 | 81 | 0 | 1.0 | 4.0 | 0.00 | 0.00 | 0.00 | 89 | 996.7 |
| 20260906063145 | 81 | 359 | 1.0 | 4.0 | 0.00 | 0.00 | 0.00 | 89 | 997.0 |
| 20260906062629 | 81 | 216 | 1.0 | 5.0 | 0.00 | 0.00 | 0.00 | 89 | 997.0 |
| 20260906061142 | 81 | 207 | 1.0 | 4.0 | 0.00 | 0.00 | 0.00 | 90 | 996.6 |
| 20260906060140 | 81 | 203 | 1.0 | 5.0 | 0.00 | 0.00 | 0.00 | 91 | 996.6 |
| 20260906055141 | 81 | 335 | 1.0 | 3.0 | 0.00 | 0.00 | 0.00 | 92 | 996.5 |
| 20260906054139 | 81 | 0 | 1.0 | 3.0 | 0.00 | 0.00 | 0.00 | 92 | 996.6 |
| 20260906053140 | 81 | 0 | 0.0 | 2.0 | 0.00 | 0.00 | 0.00 | 92 | 996.6 |
| 20260906052140 | 81 | 0 | 1.0 | 3.0 | 0.00 | 0.00 | 0.00 | 92 | 996.7 |
| 20260906051140 | 81 | 51 | 2.0 | 5.0 | 0.00 | 0.00 | 0.00 | 93 | 996.8 |
| 20260906050138 | 81 | 257 | 2.0 | 6.0 | 0.00 | 0.00 | 0.00 | 93 | 996.8 |
| 20260906045139 | 81 | 194 | 2.0 | 5.0 | 0.00 | 0.00 | 0.00 | 93 | 997.0 |
| 20260906044139 | 81 | 169 | 2.0 | 4.0 | 0.00 | 0.00 | 0.00 | 93 | 997.1 |
| 20260906043621 | 81 | 179 | 2.0 | 5.0 | 0.00 | 0.00 | 0.00 | 93 | 997.0 |
| 20260906042139 | 81 | 190 | 2.0 | 4.0 | 0.00 | 0.00 | 0.00 | 93 | 997.0 |
| 20260906041140 | 81 | 198 | 2.0 | 5.0 | 0.00 | 0.00 | 0.00 | 92 | 997.3 |
| 20260906040139 | 81 | 200 | 2.0 | 5.0 | 0.00 | 0.00 | 0.00 | 92 | 997.3 |
| 20260906035139 | 81 | 214 | 2.0 | 4.0 | 0.00 | 0.00 | 0.00 | 92 | 997.4 |
| 20260906034139 | 81 | 231 | 2.0 | 5.0 | 0.00 | 0.00 | 0.00 | 92 | 997.5 |
| 20260906033610 | 81 | 195 | 2.0 | 5.0 | 0.00 | 0.00 | 0.00 | 91 | 997.7 |
| 20260906032624 | 81 | 169 | 2.0 | 6.0 | 0.00 | 0.00 | 0.00 | 91 | 998.0 |
| 20260906031149 | 81 | 199 | 3.0 | 6.0 | 0.00 | 0.00 | 0.00 | 91 | 998.0 |
| 20260906030618 | 81 | 193 | 3.0 | 6.0 | 0.00 | 0.00 | 0.00 | 90 | 998.2 |
| 20260906025136 | 81 | 184 | 3.0 | 6.0 | 0.00 | 0.00 | 0.00 | 90 | 998.3 |
| 20260906024617 | 82 | 168 | 3.0 | 6.0 | 0.00 | 0.00 | 0.00 | 90 | 998.2 |
| 20260906023137 | 82 | 185 | 4.0 | 7.0 | 0.00 | 0.00 | 0.00 | 89 | 997.9 |
| 20260906022147 | 82 | 218 | 3.0 | 6.0 | 0.00 | 0.00 | 0.00 | 87 | 998.0 |
| 20260906021133 | 82 | 172 | 3.0 | 7.0 | 0.00 | 0.00 | 0.00 | 87 | 998.0 |
| 20260906020133 | 82 | 193 | 3.0 | 5.0 | 0.00 | 0.00 | 0.00 | 86 | 998.1 |
| 20260906015133 | 82 | 170 | 2.0 | 5.0 | 0.00 | 0.00 | 0.00 | 86 | 997.7 |
| 20260906014134 | 82 | 166 | 2.0 | 6.0 | 0.00 | 0.00 | 0.00 | 86 | 997.6 |
| 20260906013134 | 82 | 108 | 2.0 | 5.0 | 0.00 | 0.00 | 0.00 | 86 | 997.0 |
| 20260906012134 | 82 | 164 | 2.0 | 5.0 | 0.00 | 0.00 | 0.00 | 85 | 996.9 |
| 20260906011132 | 82 | 140 | 1.0 | 3.0 | 0.00 | 0.00 | 0.00 | 85 | 996.7 |
| 20260906010143 | 82 | 179 | 2.0 | 5.0 | 0.00 | 0.00 | 0.00 | 85 | 996.8 |
| 20260906005129 | 82 | 201 | 2.0 | 6.0 | 0.00 | 0.00 | 0.00 | 84 | 996.5 |
| 20260906004125 | 82 | 125 | 1.0 | 3.0 | 0.00 | 0.00 | 0.00 | 84 | 996.3 |
| 20260906003125 | 82 | 0 | 1.0 | 3.0 | 0.00 | 0.00 | 0.00 | 83 | 996.1 |
| 20260906002126 | 83 | 151 | 1.0 | 4.0 | 0.00 | 0.00 | 0.00 | 83 | 995.9 |
| 20260906001129 | 83 | 106 | 1.0 | 3.0 | 0.00 | 0.00 | 0.00 | 82 | 995.8 |
| 20260906000125 | 83 | 120 | 1.0 | 3.0 | 0.00 | 0.00 | 0.00 | 82 | 995.8 |
| 20260905235122 | 83 | 107 | 2.0 | 3.0 | 0.00 | 0.00 | 0.00 | 81 | 995.9 |
| 20260905234121 | 84 | 85 | 2.0 | 3.0 | 0.00 | 0.00 | 0.00 | 80 | 996.3 |
| 20260905233120 | 84 | 195 | 2.0 | 4.0 | 0.00 | 0.00 | 0.00 | 79 | 996.7 |